Regional Weather Roundup
Issued by NWS

Home | Current Version | Previous Version | Graphics & Text | Print | Product List | Glossary On
Versions: 1 2 3 4 5 6 7 8 9 10 11 12 13 14 15 16 17 18 19 20 21 22 23 24 25 26 27 28 29 30 31 32 33 34 35 36 37 38 39 40 41 42 43 44 45 46 47 48 49 50
699
ASUS45 KTFX 242010
RWRMT
MONTANA REGIONAL WEATHER ROUNDUP
NATIONAL WEATHER SERVICE GREAT FALLS MT
200 PM MDT SAT SEP 24 2016

NOTE: "FAIR" INDICATES FEW OR NO CLOUDS BELOW 12000 FEET WITH NO
SIGNIFICANT WEATHER AND/OR OBSTRUCTIONS TO VISIBILITY.

MTZ001>007-043-242100-
WEST OF THE DIVIDE

CITY           SKY/WX    TMP DP  RH WIND       PRES   REMARKS
KALISPELL      PTSUNNY   59  40  49 VRB3      30.22S
MISSOULA       MOSUNNY   63  36  36 NW15      30.25F
BUTTE          PTSUNNY   52  30  43 NW17G26   30.22S
MULLAN PASS    PTSUNNY   41  39  93 VRB5      30.31S
ANACONDA         N/A     55  28  35 NW14G22   30.21F
DEER LODGE       N/A     55  30  38 NW17G29   30.25R
EUREKA           N/A     63  36  36 CALM      30.20S
HAMILTON         N/A     57  34  41 N6        30.27F
LIBBY            N/A     63  37  39 NE3       30.22S
PLAINS           N/A     64  36  35 W12       30.23F
RONAN            N/A     58  40  51 S2        30.27S
$$

MTZ008-052>055-242100-
SOUTHWEST MONTANA

CITY           SKY/WX    TMP DP  RH WIND       PRES   REMARKS
BOZEMAN        CLOUDY    54  40  59 E12       30.16R
DILLON         PTSUNNY   55  34  45 SW5       30.19F
W YELLOWSTONE  CLOUDY    50  28  43 SW5       30.19F
ENNIS          CLOUDY    54  30  40 NW7G13    30.22F
THREE FORKS      N/A     60  -3   8 NW18      30.13S
TWIN BRIDGES     N/A     57  30  36 N12       30.15F
$$

MTZ009-010-012-014-046-048-049-054-242100-
EAST SLOPES AND CENTRAL MONTANA

CITY           SKY/WX    TMP DP  RH WIND       PRES   REMARKS
CUT BANK       PTSUNNY   59  38  45 N23       30.13S
GREAT FALLS    PTSUNNY   63  35  35 NW20G31   30.11R
MALMSTROM AFB  CLOUDY    61  36  38 NW20G33   30.11R
HELENA         PTSUNNY   64  33  31 W17G28    30.15S
AUGUSTA        MOCLDY    58  31  36 N16G22    30.15R
BOWMANS CRNR     N/A     57  29  35 N17       30.13S
CHOTEAU          N/A     59  34  38 NW17G24   30.15S
CONRAD           N/A     60  42  51 NW16      30.13S
FAIRFIELD        N/A     61  34  35 NW23G35   30.12S
POWER          MOCLDY    58  36  42 NW22G29   30.11S
RAYNESFORD     MOCLDY    57  36  44 NW20G30   30.11R
$$

MTZ011-013-016-021-045-047-050-051-242100-
NORTH CENTRAL MONTANA

CITY           SKY/WX    TMP DP  RH WIND       PRES   REMARKS
HAVRE          SUNNY     64  48  56 NW24G33   29.99R
LEWISTOWN      PTSUNNY   58  38  47 NW24G36   30.04R
N BAR RANCH      N/A     57  37  47 NW41G52   30.00R
CHINOOK          N/A     64  45  48 W20G28    29.95R
DENTON         MOCLDY    59  41  51 NW28G35   30.01S
GEYSER         MOCLDY    58  31  36 N16G22    30.15R
GRASS RANGE      N/A     60  39  46 NW30G46   29.96S
JUDITH GAP     MOCLDY    56  36  45 NW38G53   30.04R
ROY              N/A     60  43  53 MISG      29.95S
STANFORD         N/A     57  37  48 NW26G33   30.07F
WINIFRED       MOCLDY    60  40  47 MISG      30.01S
$$

MTZ017>020-022>027-061-062-242100-
NORTHEAST MONTANA

CITY           SKY/WX    TMP DP  RH WIND       PRES   REMARKS
GLASGOW        LGT RAIN  52  50  93 NW24      29.86F
JORDAN           N/A     50  47  89 NW17      29.88R
SIDNEY         LGT RAIN  56  54  93 N21       29.73S FOG
WOLF POINT     LGT RAIN  57  52  83 N15       29.82S
PLENTYWOOD       N/A    N/A N/A N/A N21       29.77F
POPLAR           N/A     54  52  94 NW17      29.81R
SCOBEY           N/A     53  48  83 NW18      29.83S
$$

MTZ028>42-056>058-242100-
SOUTHCENTRAL AND SOUTHEAST MONTANA

CITY           SKY/WX    TMP DP  RH WIND       PRES   REMARKS
BAKER          LGT RAIN  54  52  93 NW21G28   29.72S
BILLINGS       PTSUNNY   60  36  40 NW29G44   30.00R
LIVINGSTON     CLOUDY    54  36  50 W22       30.13S
MILES CITY     LGT RAIN  51  49  92 NW21      29.84S
BIG TIMBER     CLOUDY    55  37  50 W24G35    30.12S
EKALAKA          N/A     50  48  92 NW12      29.77R
FORSYTH          N/A     48  48 100 W16G23    29.90S
HARLOWTON      MOCLDY    60  33  36 NW33G40   30.05R
LAUREL           N/A     62  38  41 W18       30.01R
ROUNDUP          N/A     60  37  42 W23       29.88S
$$

REGIONAL REPORTS...DAKOTAS

CITY           SKY/WX    TMP DP  RH WIND       PRES   REMARKS
WILLISTON      LGT RAIN  57  55  93 N18       29.72S FOG
MINOT          CLOUDY    75  66  73 E10       29.67F
DICKINSON      MOSUNNY   67  53  61 S18       29.67S
CROSBY         CLOUDY    55  55 100 N18G24    29.76S FOG
WATFORD CITY   CLOUDY    59  59 100 N8        29.69F
BISMARCK       MOSUNNY   76  60  57 S18G29    29.70F
GRAND FORKS    CLOUDY    77  66  68 SE22      29.79F
FARGO          CLOUDY    79  65  62 SE18G29   29.81F
BUFFALO SD       N/A     62  50  64 SW23      29.67S
RAPID CITY     MOSUNNY   66  43  43 W17G23    29.83F
$$

REGIONAL REPORTS...WYOMING/IDAHO/WASHINGTON

CITY           SKY/WX    TMP DP  RH WIND       PRES   REMARKS
GILLETTE       CLOUDY    43  41  93 W23G35    29.98R
SHERIDAN       RAIN      46  43  89 W16G26    30.04R
BUFFALO WY     LGT RAIN  43  39  86 NW10      30.04R
CODY           CLOUDY    46  45  93 S7        30.09R
YELLOWSTONE LA   N/A     42  36  79 VRB3      30.22R
IDAHO FALLS    CLOUDY    58  45  62 SW18      30.21S
SALMON         CLOUDY    59  34  38 NW12      30.25S
BOISE          SUNNY     64  38  38 W14       30.28S
SPOKANE        MOSUNNY   61  39  44 W6        30.31F
$$

REGIONAL REPORTS...ALBERTA

CITY           SKY/WX    TMP DP  RH WIND       PRES   REMARKS
EDMONTON       MOSUNNY   57  34  41 NW13G22   30.06R
CALGARY        MOSUNNY   57  36  44 N7        30.15R
LETHBRIDGE     PTSUNNY   57  43  58 N6        30.15R
MEDICINE HAT   PTSUNNY   57  46  67 N14G22    30.08R
WATERTON GATE    N/A     61  34  36 SW16G26     N/A
MILK RIVER       N/A     54  45  71 N16         N/A
ONEFOUR          N/A     55  46  71 N20G29      N/A
$$

REGIONAL REPORTS...SASKATCHEWAN

CITY           SKY/WX    TMP DP  RH WIND       PRES   REMARKS
SWIFT CURRENT  CLOUDY    50  48  93 NW13G18   29.95F
REGINA         LGT RAIN  52  52 100 NW21G26   29.86R FOG
SASKATOON      CLOUDY    54  52  94 NW9       29.95R
CYPRESS HILLS    N/A     50  43  76 N14G23      N/A
VAL MARIE        N/A     52  46  82 N21G26      N/A
ROCKGLEN         N/A     50  48  93 N16G24      N/A
ASSINIBOIA       N/A     59  34  38 W23G30      N/A
$$




USA.gov is the U.S. government's official web portal to all federal, state and local government web resources and services.